{"data":{"norad_id":69708,"epoch":"2026-09-20T03:09:05.522688Z","epoch_age_seconds":53456,"freshness":"FRESH","line1":"1 69708U 26147E   26263.13131392  .00014809  00000+0  45990-3 0  9993","line2":"2 69708  97.2798 299.4429 0000481  25.6057 334.5210 15.33460669 14175","mean_motion":15.33460669,"eccentricity":4.81e-5,"inclination_deg":97.2798,"raan_deg":299.4429,"arg_perigee_deg":25.6057,"mean_anomaly_deg":334.521,"bstar":0.0004599,"rev_number":1417,"period_min":93.90524511718,"perigee_km":465.16737618119,"apogee_km":465.82573372918,"semimajor_km":6843.6335549552,"source":"CELESTRAK","updated_at":"2026-09-20T09:00:44.258075Z"}}